Location: Hiekkapohja
(62.3333°N, 25.7833°E)
Time: 00:49:17
(UTC+00:00)

Cosmos 1354 Rocket - Pass Details

Date: 07 August 2020
Orbit: 765 x 783 km, 74.0° (Epoch: 20 September)

Event Time Altitude Azimuth Distance (km) Brightness Sun altitude
Exits shadow 00:16:37 10° 220° (SW) 2,378 5.9 -8.2°
Reaches altitude 10° 00:16:43 10° 220° (SW) 2,342 5.9 -8.2°
Maximum altitude 00:22:03 79° 307° (NW) 806 4.2 -7.9°
Drops below altitude 10° 00:27:26 10° 35° (NE) 2,352 8.3 -7.6°
Sets 00:29:50 0° 37° (NE) 3,282 9.7 -7.4°
